Location: ?ejkovice
(49.0137°N, 14.3821°E)
Time: 21:28:20
(UTC+00:00)

Cosmos 2181 Rocket - Pass Details

Date: 23 May 2024
Orbit: 951 x 1015 km, 82.9° (Epoch: 20 June)

Event Time Altitude Azimuth Distance (km) Brightness Sun altitude
Rises 01:48:44 0° 348° (NNW) 3,745 7.7 -10.8°
Reaches altitude 10° 01:51:18 10° 346° (NNW) 2,784 6.9 -10.5°
Maximum altitude 01:57:38 67° 266° (W) 1,071 4.1 -9.8°
Drops below altitude 10° 02:03:49 10° 185° (S) 2,722 5.9 -9.2°
Enters shadow 02:05:56 - 183° (S) 3,519 6.5 -8.9°
